Date,TemperatureHighF,TemperatureAvgF,TemperatureLowF,DewpointHighF,DewpointAvgF,DewpointLowF,HumidityHigh,HumidityAvg,HumidityLow,PressureMaxIn,PressureMinIn,WindSpeedMaxMPH,WindSpeedAvgMPH,GustSpeedMaxMPH,PrecipitationSumIn
2013-1-1,37,35,27,35,32,22,94,90,78,30.26,30.04,2,0,0,0.00
2013-1-2,35,25,16,27,21,13,92,85,67,30.31,30.21,2,0,0,0.00
2013-1-3,43,26,15,30,21,12,92,82,52,30.44,30.27,4,0,0,0.00
2013-1-4,46,28,17,29,22,14,92,78,41,30.50,30.35,2,0,0,0.00
2013-1-5,49,35,24,33,28,21,91,77,50,30.35,30.17,5,1,0,0.00
2013-1-6,46,31,22,29,24,18,94,76,46,30.39,30.21,8,2,0,0.00
2013-1-7,52,30,15,30,21,12,91,74,37,30.42,30.17,4,0,0,0.00
2013-1-8,57,40,22,42,31,19,93,73,49,30.22,30.07,3,0,0,0.00
2013-1-9,58,49,44,47,44,42,95,84,60,30.36,30.20,3,0,0,0.00
2013-1-10,51,48,44,50,46,41,95,92,73,30.29,29.80,2,0,0,0.00
2013-1-11,65,49,34,51,43,33,96,81,54,29.91,29.78,3,1,0,0.00
2013-1-12,59,49,34,52,45,31,94,88,71,29.90,29.72,5,1,0,0.00
2013-1-13,35,30,20,33,25,16,92,80,63,30.37,29.88,7,2,0,0.00
2013-1-14,31,21,13,18,14,10,91,77,46,30.51,30.36,5,1,0,0.00
2013-1-15,28,22,15,24,18,12,89,84,73,30.39,30.16,2,0,0,0.00
2013-1-16,45,26,13,28,19,10,92,76,42,30.24,30.09,3,0,0,0.00
2013-1-17,46,32,21,35,25,19,92,79,52,30.50,30.18,7,2,0,0.00
2013-1-18,59,37,19,33,25,17,92,68,28,30.54,30.22,3,0,0,0.00
2013-1-19,66,45,26,38,31,23,91,62,35,30.22,30.03,7,1,0,0.00
2013-1-20,56,38,25,36,28,23,94,73,35,30.30,30.12,2,0,0,0.00
2013-1-21,40,30,22,28,17,13,88,58,38,30.40,30.23,6,1,0,0.00
2013-1-22,37,26,16,20,16,12,88,67,45,30.42,30.29,4,1,0,0.00
2013-1-23,60,34,18,42,26,15,91,74,46,30.33,30.11,1,0,0,0.00
2013-1-24,39,33,29,32,19,13,93,57,43,30.43,30.20,6,3,0,0.00
2013-1-25,47,35,29,35,27,19,86,73,58,30.25,30.14,4,1,0,0.00
2013-1-26,56,41,26,34,28,24,93,65,34,30.32,30.19,4,1,0,0.00
2013-1-27,59,48,44,54,42,32,92,79,57,30.22,29.96,3,1,0,0.00
2013-1-28,75,68,57,62,60,54,89,75,59,29.97,29.85,7,2,0,0.00
2013-1-29,68,63,53,62,59,51,95,85,76,29.85,29.40,8,1,0,0.00
2013-1-30,53,40,30,52,33,21,95,76,62,30.03,29.43,12,5,0,0.00
2013-1-31,53,37,20,30,22,7,90,58,39,30.42,30.03,8,4,0,0.00
2013-2-1,39,26,12,17,9,4,78,51,31,30.54,30.26,5,1,0,0.00
2013-2-2,55,35,21,33,24,16,87,65,42,30.28,30.14,8,2,0,0.00
2013-2-3,55,40,27,32,26,23,91,63,31,30.25,30.02,8,2,0,0.00
2013-2-4,56,45,31,46,36,26,93,73,44,30.02,29.81,4,0,0,0.00
2013-2-5,66,42,29,45,34,27,95,79,32,30.07,29.91,4,0,0,0.00
2013-2-6,56,42,27,40,33,25,94,73,49,30.20,30.01,5,1,0,0.00
2013-2-7,64,50,37,55,46,35,94,85,66,30.01,29.81,3,0,0,0.00
2013-2-8,51,42,34,44,34,30,87,73,50,30.30,30.01,4,1,0,0.00
2013-2-9,41,37,32,35,31,28,87,80,69,30.30,29.96,5,2,0,0.00
2013-2-10,68,50,37,56,40,30,95,73,28,29.97,29.61,10,2,0,0.00
2013-2-11,55,42,29,32,28,24,86,59,35,30.17,29.98,8,2,0,0.00
2013-2-12,48,36,24,36,29,22,92,76,49,30.15,29.88,4,0,0,0.00
2013-2-13,53,40,30,38,34,27,93,79,45,30.00,29.89,7,2,0,0.00
2013-2-14,60,42,26,38,31,24,94,71,37,30.10,29.93,5,1,0,0.00
2013-2-15,45,39,25,35,25,14,82,58,33,30.29,30.09,7,2,0,0.00
2013-2-16,41,31,20,24,19,14,83,61,34,30.33,30.17,5,1,0,0.00
2013-2-17,62,44,28,34,27,21,81,54,30,30.17,29.88,4,1,0,0.00
2013-2-18,57,51,39,51,42,30,91,70,52,30.03,29.60,9,3,0,0.00
2013-2-19,47,36,23,30,21,14,83,57,28,30.30,30.02,9,4,0,0.00
2013-2-20,35,29,22,21,15,13,87,58,40,30.36,30.18,5,1,0,0.00
2013-2-21,32,30,29,30,26,15,93,85,50,30.19,29.78,8,2,0,0.00
2013-2-22,38,31,25,32,26,22,100,83,62,30.11,29.83,5,1,0,0.00
2013-2-23,44,29,18,29,22,15,91,77,47,30.12,29.96,5,0,0,0.00
2013-2-24,55,37,20,34,27,18,92,71,43,30.09,29.91,6,2,0,0.00
2013-2-25,55,40,27,40,33,25,93,78,43,29.92,29.35,14,2,0,0.00
2013-2-26,41,38,35,40,33,30,95,84,75,29.83,29.30,9,4,0,0.00
2013-2-27,43,38,36,31,29,26,77,69,58,30.01,29.77,9,5,0,0.00
2013-2-28,41,36,31,28,26,23,78,67,57,30.17,30.00,8,3,0,0.00
2013-3-1,35,33,30,27,24,22,78,70,64,30.22,30.13,6,3,0,0.00
2013-3-2,38,30,21,25,20,16,86,67,46,30.31,30.21,8,2,0,0.00
2013-3-3,54,36,17,28,22,14,90,62,33,30.25,29.92,5,2,0,0.00
2013-3-4,57,47,39,47,38,28,91,71,64,29.92,29.65,6,2,0,0.00
2013-3-5,46,42,35,41,29,21,93,62,38,30.25,29.73,14,7,0,0.00
2013-3-6,48,36,29,28,22,19,79,58,37,30.40,30.25,7,2,0,0.00
2013-3-7,59,44,30,34,30,25,85,62,33,30.35,30.19,4,1,0,0.00
2013-3-8,60,45,28,38,32,25,92,65,41,30.35,30.13,6,2,0,0.00
2013-3-9,72,60,47,54,43,34,73,55,28,30.12,29.71,7,2,0,0.00
2013-3-10,64,53,40,56,48,33,94,84,63,29.87,29.62,13,3,0,0.00
2013-3-11,47,37,29,33,28,24,86,70,46,30.04,29.85,8,5,0,0.00
2013-3-12,58,40,24,32,26,22,92,63,31,30.28,30.03,10,2,0,0.00
2013-3-13,53,39,26,29,24,21,85,57,29,30.45,30.28,7,2,0,0.00
2013-3-14,73,46,24,40,31,21,92,61,29,30.40,30.07,8,1,0,0.00
2013-3-15,83,59,36,50,42,33,93,60,26,30.09,29.75,10,2,0,0.00
2013-3-16,77,61,48,51,46,39,87,61,38,29.87,29.70,10,1,0,0.00
2013-3-17,53,44,40,40,38,36,93,81,59,29.95,29.68,7,2,0,0.00
2013-3-18,54,45,34,43,39,30,94,81,49,30.03,29.68,8,2,0,0.00
2013-3-19,55,41,28,35,26,19,94,62,24,30.23,30.03,5,1,0,0.00
2013-3-20,49,38,26,33,23,14,90,58,27,30.32,30.13,12,3,0,0.00
2013-3-21,44,32,25,32,21,12,96,67,32,30.14,29.91,4,2,0,0.00
2013-3-22,36,34,31,34,32,29,94,93,92,29.97,29.89,3,1,0,0.00
2013-3-23,43,38,34,40,35,32,95,90,84,29.97,29.70,2,0,0,0.00
2013-3-24,42,38,32,40,32,21,94,79,63,30.04,29.59,14,6,0,0.00
2013-3-25,37,32,27,24,21,16,69,62,53,30.30,30.02,11,6,0,0.00
2013-3-26,46,35,27,27,24,22,85,64,40,30.40,30.30,6,2,0,0.00
2013-3-27,60,40,20,33,25,17,90,61,29,30.39,30.19,4,1,0,0.00
2013-3-28,70,55,44,46,39,33,75,55,38,30.27,30.09,3,1,0,0.00
2013-3-29,67,55,45,52,47,41,93,77,53,30.19,30.08,3,0,0,0.00
2013-3-30,69,57,51,55,49,-100,91,79,60,30.13,29.83,6,1,0,0.00
2013-3-31,69,55,44,52,47,39,95,78,36,29.95,29.81,4,0,0,0.00
2013-4-1,64,49,35,47,39,33,94,72,41,30.16,29.92,5,1,0,0.00
2013-4-2,47,41,37,41,32,28,88,73,52,30.29,30.15,3,1,0,0.00
2013-4-3,53,43,32,35,29,24,94,62,33,30.29,30.15,8,1,0,0.00
2013-4-4,57,48,42,38,32,29,73,56,34,30.18,30.00,4,1,0,0.00
2013-4-5,74,50,29,43,34,26,90,60,27,30.18,29.99,2,0,0,0.00
2013-4-6,76,60,43,48,43,36,83,56,33,30.02,29.77,6,1,0,0.00
2013-4-7,79,66,50,56,52,45,84,63,42,29.89,29.76,6,1,0,0.00
2013-4-8,76,67,58,60,57,53,85,70,56,29.80,29.72,7,1,0,0.00
2013-4-9,82,73,66,64,60,56,73,63,45,29.81,29.70,7,2,0,0.00
2013-4-10,84,70,44,67,60,40,93,71,52,29.79,29.54,14,3,0,0.00
2013-4-11,55,44,37,40,35,31,88,72,44,29.81,29.67,8,4,0,0.00
2013-4-12,63,45,30,38,33,28,93,66,35,30.01,29.79,9,2,0,0.00
2013-4-13,70,53,37,47,39,34,90,63,38,30.06,29.82,4,0,0,0.00
2013-4-14,79,61,42,58,49,40,94,68,34,29.85,29.53,7,2,0,0.00
2013-4-15,77,67,56,64,59,53,93,78,61,29.79,29.68,6,1,0,0.00
2013-4-16,87,69,54,67,60,52,95,76,45,29.92,29.77,4,0,0,0.00
2013-4-17,85,76,61,69,65,58,90,71,51,29.92,29.63,7,1,0,0.00
2013-4-18,78,61,43,67,53,32,92,76,64,29.89,29.52,9,4,0,0.00
2013-4-19,57,46,36,34,29,25,84,54,31,30.10,29.89,11,6,0,0.00
2013-4-20,67,49,30,45,35,28,93,64,32,30.22,30.10,2,0,0,0.00
2013-4-21,68,56,42,45,41,38,91,60,33,30.30,30.13,7,2,0,0.00
2013-4-22,73,56,35,46,41,33,93,63,30,30.21,29.91,5,1,0,0.00
2013-4-23,75,58,41,57,49,39,92,74,48,30.04,29.78,6,2,0,0.00
2013-4-24,58,45,36,39,35,30,93,71,35,30.28,30.03,6,2,0,0.00
2013-4-25,71,50,30,46,36,28,95,65,25,30.37,30.21,2,0,0,0.00
2013-4-26,54,50,45,49,46,41,94,87,66,30.37,30.17,5,1,0,0.00
2013-4-27,57,52,48,54,50,46,94,92,90,30.19,29.93,5,0,0,0.00
2013-4-28,72,58,51,56,51,48,93,79,49,30.00,29.86,3,0,0,0.00
2013-4-29,83,63,44,64,54,42,95,75,46,29.93,29.73,4,0,0,0.00
2013-4-30,84,68,52,61,54,47,95,65,29,29.85,29.78,6,1,0,0.00
2013-5-1,80,64,50,69,58,48,94,82,56,30.03,29.85,7,1,0,0.00
2013-5-2,62,54,43,61,52,40,96,93,90,30.14,29.99,3,1,0,0.00
2013-5-3,42,38,37,40,36,34,93,91,88,30.13,29.92,6,3,0,0.00
2013-5-4,49,42,36,41,38,34,94,85,62,29.97,29.87,3,0,0,0.00
2013-5-5,57,48,33,50,42,31,95,82,65,30.02,29.92,7,2,0,0.00
2013-5-6,70,60,54,57,52,49,88,76,57,29.99,29.91,6,2,0,0.00
2013-5-7,81,63,47,59,53,45,94,73,37,30.02,29.91,1,0,0,0.00
2013-5-8,82,66,48,61,54,46,95,71,39,30.02,29.89,4,0,0,0.00
2013-5-9,85,69,57,62,57,51,94,72,31,29.94,29.82,4,0,0,0.00
2013-5-10,75,64,56,62,56,-100,95,81,57,29.99,29.83,5,0,0,0.00
2013-5-11,76,60,46,55,47,-100,95,68,32,30.14,29.98,4,1,0,0.00
2013-5-12,71,53,36,47,38,33,92,63,28,30.26,30.10,3,0,0,0.00
2013-5-13,83,62,43,58,48,41,93,66,33,30.20,30.00,5,1,0,0.00
2013-5-14,92,70,48,60,54,46,94,63,28,30.01,29.89,6,1,0,0.00
2013-5-15,84,69,52,68,60,49,94,76,55,29.98,29.85,3,0,0,0.00
2013-5-16,65,59,60,62,41,-100,95,93,86,29.90,29.81,3,0,0,0.00
2013-5-17,82,68,59,67,58,-100,96,83,52,29.89,29.81,1,0,0,0.00
2013-5-18,82,70,58,74,66,56,96,87,73,29.93,29.80,3,0,0,0.00
2013-5-19,86,75,62,72,66,60,96,77,53,29.82,29.67,5,1,0,0.00
2013-5-20,80,75,64,72,68,61,91,79,67,29.84,29.66,6,0,0,0.00
2013-5-21,68,64,60,65,61,58,95,91,81,29.87,29.61,7,1,0,0.00
2013-5-22,80,67,54,62,58,52,95,75,47,29.88,29.71,6,1,0,0.00
2013-5-23,79,66,51,63,57,49,95,75,52,30.12,29.88,3,1,0,0.00
2013-5-24,74,62,51,55,50,45,94,68,37,30.29,30.13,5,1,0,0.00
2013-5-25,81,65,47,64,54,45,96,72,51,30.25,30.05,4,1,0,0.00
2013-5-26,86,72,56,70,63,54,93,75,56,30.10,29.96,2,0,0,0.00
2013-5-27,84,74,61,68,64,59,93,73,53,29.98,29.80,3,0,0,0.00
2013-5-28,85,77,72,68,66,64,78,67,54,29.87,29.75,4,1,0,0.00
2013-5-29,84,76,65,68,65,61,90,70,55,29.89,29.74,4,1,0,0.00
2013-5-30,82,75,65,71,68,62,93,79,65,29.89,29.72,6,1,0,0.00
2013-5-31,86,75,66,74,70,63,93,83,67,29.83,29.64,8,1,0,0.00
2013-6-1,77,70,65,74,65,-100,95,89,75,29.90,29.67,8,1,0,0.00
2013-6-2,72,64,53,62,57,52,95,80,61,29.98,29.89,5,1,0,0.00
2013-6-3,78,66,55,62,57,53,94,75,48,30.03,29.88,2,0,0,0.00
2013-6-4,80,66,52,67,59,50,95,79,52,29.98,29.87,4,0,0,0.00
2013-6-5,85,70,57,71,63,55,95,81,55,29.93,29.76,3,0,0,0.00
2013-6-6,79,70,62,64,61,58,93,76,53,29.86,29.79,3,0,0,0.00
2013-6-7,78,66,53,61,56,51,94,75,43,29.91,29.83,3,0,0,0.00
2013-6-8,84,68,51,64,57,49,94,73,41,29.92,29.82,2,0,0,0.00
2013-6-9,80,67,57,71,63,55,94,87,67,29.89,29.77,7,0,0,0.00
2013-6-10,94,75,57,72,65,56,96,74,40,29.85,29.78,5,1,0,0.00
2013-6-11,97,80,61,77,68,59,95,71,38,29.93,29.85,3,0,0,0.00
2013-6-12,94,81,64,74,70,62,94,72,49,29.93,29.80,4,1,0,0.00
2013-6-13,90,80,66,74,68,64,95,71,47,29.93,29.83,3,1,0,0.00
2013-6-14,89,75,61,69,66,59,95,74,50,29.99,29.89,2,0,0,0.00
2013-6-15,89,75,61,74,67,59,94,77,49,29.98,29.87,1,0,0,0.00
2013-6-16,89,76,66,77,70,64,95,82,58,29.97,29.85,10,0,0,0.00
2013-6-17,78,70,63,73,67,62,96,92,78,29.92,29.80,7,0,0,0.00
2013-6-18,87,73,62,71,66,61,96,81,51,29.96,29.86,1,0,0,0.00
2013-6-19,91,75,60,73,65,59,96,76,43,29.99,29.90,1,0,0,0.00
2013-6-20,89,74,62,71,67,60,95,79,52,30.04,29.97,3,0,0,0.00
2013-6-22,92,86,77,76,74,70,89,68,54,30.03,29.90,3,0,0,0.00
2013-6-23,92,79,65,75,71,63,95,77,53,29.98,29.87,2,0,0,0.00
2013-6-24,92,80,68,76,72,66,95,77,52,30.02,29.90,2,0,0,0.00
2013-6-25,92,80,68,76,72,66,95,76,52,29.94,29.79,3,0,0,0.00
2013-6-26,96,84,72,79,74,69,93,74,55,29.84,29.74,3,0,0,0.00
2013-6-27,100,85,69,80,75,67,95,75,45,29.88,29.77,2,0,0,0.00
2013-6-28,93,83,71,75,69,64,93,68,41,29.82,29.70,4,1,0,0.00
2013-6-29,87,76,59,65,59,55,94,62,36,29.78,29.68,6,2,0,0.00
2013-6-30,79,72,61,62,60,57,90,68,53,29.87,29.72,3,1,0,0.00
2013-7-1,81,70,59,64,60,57,93,72,48,29.95,29.86,4,1,0,0.00
2013-7-2,82,68,53,62,57,51,94,72,41,30.03,29.93,3,1,0,0.00
2013-7-3,87,68,52,63,56,50,93,70,37,30.08,29.95,1,0,0,0.00
2013-7-4,87,72,54,64,58,52,94,68,36,30.03,29.90,3,0,0,0.00
2013-7-5,90,74,56,69,61,54,93,69,35,30.02,29.89,2,0,0,0.00
2013-7-6,92,73,59,70,63,57,94,75,38,29.99,29.88,2,0,0,0.00
2013-7-7,93,78,61,72,66,59,94,70,42,30.01,29.92,3,0,0,0.00
2013-7-8,93,77,65,77,68,-100,94,78,46,30.05,29.95,2,0,0,0.00
2013-7-9,98,82,68,75,71,66,94,71,43,30.03,29.88,2,0,0,0.00
2013-7-10,98,80,69,74,68,-100,93,72,41,29.97,29.80,2,0,0,0.00
2013-7-11,95,80,66,74,68,60,94,70,35,29.94,29.85,3,0,0,0.00
2013-7-12,91,78,59,63,58,53,94,56,29,30.04,29.91,2,1,0,0.00
2013-7-13,88,71,53,70,60,51,93,71,37,30.04,29.90,2,0,0,0.00
2013-7-14,87,72,57,67,61,55,94,71,40,30.03,29.93,3,0,0,0.00
2013-7-15,88,76,64,72,67,61,93,77,54,30.13,30.02,4,1,0,0.00
2013-7-16,93,79,65,75,69,63,95,75,46,30.21,30.11,5,1,0,0.00
2013-7-17,95,81,65,74,68,63,94,70,41,30.26,30.10,3,0,0,0.00
2013-7-18,97,79,65,73,68,63,94,72,38,30.16,29.96,5,0,0,0.00
2013-7-19,95,77,67,72,68,65,95,79,43,30.01,29.84,4,0,0,0.00
2013-7-20,93,74,66,75,68,-100,96,84,51,29.90,29.76,2,0,0,0.00
2013-7-21,86,73,67,75,71,66,96,91,67,29.89,29.79,1,0,0,0.00
2013-7-22,85,74,68,77,71,66,96,90,65,29.88,29.77,3,0,0,0.00
2013-7-23,95,76,67,80,70,66,96,84,55,29.86,29.70,4,0,0,0.00
2013-7-24,86,75,67,73,70,66,96,83,60,29.95,29.79,3,0,0,0.00
2013-7-25,85,74,62,70,65,61,95,76,51,30.05,29.95,1,0,0,0.00
2013-7-26,71,67,63,68,66,61,95,93,86,30.03,29.93,1,0,0,0.00
2013-7-27,84,72,63,69,64,61,96,79,47,29.98,29.88,3,0,0,0.00
2013-7-28,78,67,60,68,63,58,95,86,64,30.03,29.93,1,0,0,0.00
2013-7-29,85,74,65,73,68,64,95,82,65,30.07,29.97,2,0,0,0.00
2013-7-30,83,76,70,76,72,68,96,90,75,30.01,29.91,1,0,0,0.00
2013-7-31,92,78,71,77,73,70,96,86,61,29.99,29.89,2,0,0,0.00
2013-8-1,88,73,64,72,68,63,96,86,53,30.05,29.93,0,0,0,0.00
2013-8-2,88,80,64,77,72,63,95,78,62,29.97,29.83,2,0,0,0.00
2013-8-3,85,76,68,74,72,66,95,88,65,30.04,29.82,5,0,0,0.00
2013-8-4,79,73,68,74,70,67,96,93,81,30.08,29.99,1,0,0,0.00
2013-8-5,85,75,68,79,72,66,96,92,82,30.01,29.78,5,0,0,0.00
2013-8-6,87,76,67,80,73,66,96,91,77,29.92,29.76,2,0,0,0.00
2013-8-7,87,78,72,79,73,70,96,86,71,29.95,29.76,6,0,0,0.00
2013-8-8,85,75,70,76,72,69,96,92,73,29.93,29.81,2,0,0,0.00
2013-8-9,86,76,71,77,72,70,96,89,66,29.97,29.87,1,0,0,0.00
2013-8-10,79,73,69,74,70,68,96,92,78,30.06,29.95,4,0,0,0.00
2013-8-11,84,74,68,77,72,67,97,91,77,30.06,29.95,1,0,0,0.00
2013-8-12,87,74,69,78,71,68,97,90,71,29.99,29.89,2,0,0,0.00
2013-8-13,82,72,67,74,67,-100,97,87,66,30.00,29.90,2,0,0,0.00
2013-8-14,77,68,58,67,58,-100,96,78,48,30.11,29.99,3,0,0,0.00
2013-8-15,76,57,53,62,40,-100,96,74,49,30.11,29.99,2,0,0,0.00
2013-8-16,76,62,54,63,54,-100,96,80,56,30.08,30.01,2,0,0,0.00
2013-8-17,81,67,57,69,59,-100,95,81,55,30.09,29.99,3,0,0,0.00
2013-8-18,84,71,60,70,64,59,96,81,53,30.10,29.99,1,0,0,0.00
2013-8-19,86,67,61,71,53,-100,96,80,50,30.09,29.95,1,0,0,0.00
2013-8-20,87,72,61,71,64,-100,96,80,51,30.06,29.96,1,0,0,0.00
2013-8-21,91,74,60,76,67,59,96,81,49,30.08,29.98,1,0,0,0.00
2013-8-22,92,78,63,75,70,62,96,78,48,30.07,29.95,1,0,0,0.00
2013-8-23,92,78,66,77,71,65,96,81,56,30.04,29.93,1,0,0,0.00
2013-8-24,91,76,66,74,68,-100,96,80,52,30.11,30.01,1,0,0,0.00
2013-8-25,91,77,64,76,70,63,96,82,55,30.18,30.07,1,0,0,0.00
2013-8-26,92,78,66,75,71,65,96,80,51,30.16,30.03,1,0,0,0.00
2013-8-27,91,73,63,72,67,62,95,83,44,30.08,29.99,0,0,0,0.00
2013-8-28,91,85,72,77,74,69,93,70,54,30.02,29.94,0,0,0,0.00
2013-8-29,95,79,65,78,71,64,96,80,49,30.02,29.91,0,0,0,0.00
2013-8-30,94,79,67,79,73,66,95,82,55,29.95,29.82,3,0,0,0.00
2013-8-31,97,80,67,79,70,-100,96,78,45,29.85,29.72,1,0,0,0.00
2013-9-1,84,76,68,76,72,67,96,88,67,29.83,29.74,1,0,0,0.00
2013-9-2,89,75,65,70,67,62,96,78,47,29.91,29.81,1,0,0,0.00
2013-9-3,88,71,56,68,62,55,95,75,42,30.01,29.91,2,0,0,0.00
2013-9-4,88,70,55,67,60,54,96,76,37,30.11,30.01,1,0,0,0.00
2013-9-5,87,70,56,69,62,54,95,78,44,30.15,30.04,1,0,0,0.00
2013-9-6,88,71,58,70,63,56,96,79,43,30.12,29.97,1,0,0,0.00
2013-9-7,93,72,59,74,63,-100,95,79,42,30.02,29.87,2,0,0,0.00
2013-9-8,95,76,61,77,69,60,95,79,47,29.92,29.82,1,0,0,0.00
2013-9-9,96,79,66,75,70,65,96,77,42,29.95,29.86,2,0,0,0.00
2013-9-10,95,76,62,75,68,60,95,78,39,30.07,29.94,1,0,0,0.00
2013-9-11,95,78,65,74,69,64,95,78,45,30.09,29.98,3,0,0,0.00
2013-9-12,90,76,65,73,69,64,96,81,47,30.03,29.91,6,0,0,0.00
2013-9-13,77,69,57,69,60,54,94,75,53,30.06,29.94,1,0,0,0.00
2013-9-14,78,62,48,57,50,-100,95,72,40,30.09,29.96,2,0,0,0.00
2013-9-15,85,64,46,66,56,44,95,78,43,30.05,29.97,1,0,0,0.00
2013-9-16,76,68,60,68,63,58,94,85,68,30.16,30.01,1,0,0,0.00
2013-9-17,86,73,63,69,65,61,94,78,48,30.14,29.96,2,0,0,0.00
2013-9-18,72,66,64,69,64,62,95,93,90,30.00,29.92,0,0,0,0.00
2013-9-19,91,74,66,74,69,64,95,85,54,29.97,29.85,3,0,0,0.00
2013-9-20,71,67,60,69,66,59,96,94,87,29.91,29.83,2,0,0,0.00
2013-9-21,76,61,50,59,51,-100,96,76,36,29.96,29.85,3,0,0,0.00
2013-9-22,77,59,45,59,51,44,96,79,44,29.98,29.84,2,0,0,0.00
2013-9-23,78,61,46,60,53,45,96,79,46,29.94,29.80,4,1,0,0.00
2013-9-24,84,66,53,65,58,51,96,77,45,29.88,29.72,1,0,0,0.00
2013-9-25,80,65,52,64,58,50,95,81,52,29.83,29.77,2,0,0,0.00
2013-9-26,84,66,53,67,59,51,96,82,51,29.94,29.83,2,0,0,0.00
2013-9-27,86,69,56,70,62,55,96,81,51,30.01,29.89,4,0,0,0.00
2013-9-28,86,70,59,69,62,-100,96,81,57,29.97,29.87,3,0,0,0.00
2013-9-29,71,67,61,67,64,59,96,90,79,30.00,29.90,2,0,0,0.00
2013-9-30,78,69,64,67,65,62,95,86,68,29.91,29.82,3,0,0,0.00
2013-10-1,76,70,67,69,67,65,94,90,80,29.95,29.90,1,0,0,0.00
2013-10-2,83,71,62,71,67,61,96,87,65,30.00,29.89,3,0,0,0.00
2013-10-3,85,72,62,74,67,61,97,86,63,29.94,29.82,3,0,0,0.00
2013-10-4,87,75,63,72,68,62,96,81,50,29.92,29.83,2,0,0,0.00
2013-10-5,73,70,69,72,69,67,96,94,92,29.90,29.85,0,0,0,0.00
2013-10-6,65,56,48,49,47,45,92,72,50,29.97,29.88,5,2,0,0.00
2013-10-7,71,55,43,53,47,41,96,78,43,30.12,29.96,3,0,0,0.00
2013-10-8,72,55,42,54,47,41,96,78,45,30.17,30.04,4,0,0,0.00
2013-10-9,74,56,41,59,50,40,96,82,53,30.12,30.01,1,0,0,0.00
2013-10-10,78,60,48,63,53,46,96,83,50,30.11,29.94,2,0,0,0.00
2013-10-11,79,62,49,64,56,48,96,84,57,29.98,29.85,2,0,0,0.00
2013-10-12,77,64,57,65,58,-100,96,86,63,30.14,29.89,3,0,0,0.00
2013-10-13,74,60,50,56,52,47,95,80,44,30.30,30.14,3,0,0,0.00
2013-10-14,70,58,46,63,53,44,95,86,62,30.25,29.99,0,0,0,0.00
2013-10-15,69,63,56,67,61,52,96,92,80,30.00,29.86,3,0,0,0.00
2013-10-16,64,55,49,53,49,45,95,81,54,30.06,29.94,3,0,0,0.00
2013-10-17,66,54,44,50,47,42,96,81,48,30.02,29.93,3,0,0,0.00
2013-10-18,68,52,39,54,46,38,96,85,52,30.06,29.92,2,0,0,0.00
2013-10-19,60,48,38,48,39,-100,94,77,43,30.09,29.98,3,1,0,0.00
2013-10-20,69,49,34,48,40,32,96,76,38,30.04,29.89,2,0,0,0.00
2013-10-21,61,50,44,52,47,42,95,90,66,30.07,29.94,2,0,0,0.00
2013-10-22,69,50,37,50,42,36,96,79,45,30.08,29.85,4,1,0,0.00
2013-10-23,59,46,36,44,39,34,95,76,45,30.17,29.99,2,0,0,0.00
2013-10-24,55,44,34,40,35,31,95,75,42,30.40,30.09,4,1,0,0.00
2013-10-25,55,44,28,37,32,26,100,67,38,30.53,30.25,2,0,0,0.00
2013-10-26,71,51,35,57,44,-100,93,80,59,30.26,30.03,1,0,0,0.00
2013-10-27,62,53,43,54,45,40,93,76,58,30.09,29.97,2,0,0,0.00
2013-10-28,68,52,40,56,46,-100,98,87,63,30.18,30.02,1,0,0,0.00
2013-10-29,68,58,46,65,57,44,96,94,89,30.18,29.98,3,0,0,0.00
2013-10-30,72,67,62,65,63,60,96,87,75,30.03,29.82,1,0,0,0.00
2013-10-31,76,65,50,66,60,48,96,86,43,29.82,29.39,8,1,0,0.00
2013-11-1,70,55,40,48,43,38,96,70,36,29.94,29.71,6,1,0,0.00
2013-11-2,58,47,36,44,37,-100,94,74,49,30.22,29.93,6,1,0,0.00
2013-11-3,61,45,31,46,36,29,96,75,43,30.28,30.08,4,0,0,0.00
2013-11-4,57,53,46,50,45,40,94,76,63,30.20,30.08,2,0,0,0.00
2013-11-5,61,56,52,58,54,50,95,92,84,30.18,29.99,3,0,0,0.00
2013-11-6,61,52,43,60,48,36,96,86,73,30.31,29.88,6,2,0,0.00
2013-11-7,61,43,30,42,36,28,95,78,41,30.45,30.29,4,0,0,0.00
2013-11-8,64,45,31,42,36,29,96,74,37,30.36,30.11,2,0,0,0.00
2013-11-9,63,50,39,49,41,-100,92,76,51,30.23,30.11,1,0,0,0.00
2013-11-10,66,51,38,45,41,35,95,73,36,30.37,30.24,3,0,0,0.00
2013-11-11,70,52,34,53,44,32,94,76,47,30.32,30.12,4,0,0,0.00
2013-11-12,48,36,23,41,22,14,82,60,33,30.71,30.34,6,2,0,0.00
2013-11-13,49,29,17,23,18,14,91,69,29,30.72,30.38,1,0,0,0.00
2013-11-14,57,40,23,34,25,20,92,58,28,30.37,30.07,3,0,0,0.00
2013-11-15,55,49,42,51,42,32,85,77,57,30.06,29.90,3,1,0,0.00
2013-11-16,70,63,55,65,55,-100,93,79,71,29.91,29.63,4,1,0,0.00
2013-11-17,80,73,59,66,55,33,94,58,25,29.88,29.52,11,3,0,0.00
2013-11-18,64,49,35,41,34,26,91,61,25,30.27,30.12,4,1,0,0.00
2013-11-19,57,43,31,36,30,27,92,64,33,30.31,30.13,3,1,0,0.00
2013-11-20,63,47,35,38,31,27,82,57,26,30.15,29.93,4,1,0,0.00
2013-11-21,55,52,47,53,48,35,95,86,55,30.17,30.01,1,0,0,0.00
2013-11-22,54,42,35,53,38,30,95,85,79,30.49,30.16,6,2,0,0.00
2013-11-23,41,35,26,32,21,-100,90,61,36,30.67,30.49,4,1,0,0.00
2013-11-24,30,25,19,14,12,10,73,56,47,30.72,30.42,3,1,0,0.00
2013-11-25,34,31,30,31,24,13,91,74,49,30.44,30.18,3,1,0,0.00
2013-11-26,47,37,32,33,28,19,93,72,51,30.26,30.04,7,2,0,0.00
2013-11-27,36,27,19,19,14,10,84,59,40,30.42,30.27,7,2,0,0.00
2013-12-14,38,34,31,34,28,-100,95,85,78,30.21,29.83,6,2,0,0.00
2013-12-15,47,32,25,34,26,21,92,76,56,30.26,30.12,4,1,0,0.00
2013-12-16,62,37,26,41,30,24,95,80,38,30.12,30.01,0,0,0,0.00
2013-12-17,57,37,26,40,30,24,95,80,40,30.31,30.11,5,1,0,0.00
2013-12-18,60,38,23,41,30,21,95,76,43,30.31,29.98,2,0,0,0.00
2013-12-19,61,57,45,54,49,40,91,75,68,29.97,29.75,2,0,0,0.00
2013-12-20,70,57,40,61,51,37,93,82,65,29.83,29.72,3,0,0,0.00
2013-12-21,42,39,38,41,36,-100,95,93,92,29.78,29.47,4,0,0,0.00
2013-12-22,41,35,31,40,30,22,95,82,72,30.32,29.66,6,3,0,0.00
2013-12-23,35,29,23,25,20,17,87,71,54,30.58,30.32,5,2,0,0.00
2013-12-24,35,25,17,20,16,11,82,70,51,30.62,30.37,4,2,0,0.00
2013-12-25,48,32,23,34,26,17,92,78,58,30.39,30.27,5,0,0,0.00
2013-12-26,51,33,22,36,26,20,95,78,38,30.44,30.31,2,0,0,0.00
2013-12-27,59,40,23,36,29,21,94,70,35,30.44,30.30,1,0,0,0.00
2013-12-28,50,34,23,38,27,-100,94,81,59,30.33,29.95,1,0,0,0.00
2013-12-29,45,33,25,38,27,17,92,79,69,30.27,29.93,6,2,0,0.00
2013-12-30,37,25,18,21,16,12,86,68,49,30.34,30.23,1,0,0,0.00
2013-12-31,55,32,16,30,22,13,92,70,30,30.42,30.22,2,0,0,0.00
2014-1-1,54,39,24,35,29,22,93,69,40,30.21,29.91,10,1,0,0.00
2014-1-2,35,24,16,26,13,6,76,65,51,30.51,30.02,8,4,0,0.00